Weather History for Mount Pleasant, TX

Change the Weather History Date:

Thursday, August 23, 2012

  Actual Average (KGGG) Record (KGGG)
Temperature  
Mean Temperature 74 °F 82 °F  
Max Temperature 89 °F 94 °F 107 °F (1980)
Min Temperature 59 °F 71 °F 58 °F (1931)
Degree Days  
Heating Degree Days 0 0  
Month to date heating degree days 0  
Since 1 June heating degree days 0  
Since 1 July heating degree days 0  
Cooling Degree Days 9 17  
Month to date cooling degree days 419  
Year to date cooling degree days 1809  
Since 1 June cooling degree days 1430  
Growing Degree Days 24 (Base 50)    
Moisture  
Dew Point 64 °F    
Average Humidity 71    
Maximum Humidity 100    
Minimum Humidity 36    
Precipitation  
Precipitation 0.00 in 0.10 in 2.20 in (1942)
Month to date precipitation 2.21  
Year to date precipitation 29.84  
Snow  
Snow 0.00 in - - ()
Month to date snowfall  
Since 1 June snowfall  
Since 1 July snowfall  
Snow Depth -    
Sea Level Pressure  
Sea Level Pressure 30.05 in    
Wind  
Wind Speed 2 mph (ESE)    
Max Wind Speed 10 mph    
Max Gust Speed -    
Visibility 10 miles    
Events      
T = Trace of Precipitation, MM = Missing Value Source: NWS Daily Summary

Daily Weather History Graph

Daily Weather History Graph

Search for Another Location

Airport:

Trip Planner

Search our weather history database for the weather conditions in past years. The results will help you decide how hot, cold, wet, or windy it might be!

Date:

Astronomy

Aug. 23, 2012 Rise Set
Actual Time 6:48 AM CDT 7:55 PM CDT
Civil Twilight 6:22 AM CDT 8:21 PM CDT
Nautical Twilight 5:52 AM CDT 8:51 PM CDT
Astronomical Twilight 5:20 AM CDT 9:22 PM CDT
Moon 1:11 PM CDT (8/23) 11:50 PM CDT (8/23)
Length of Visible Light 13h 58m
Length of Day
13h 06m
Waxing Crescent, 40% of the Moon is Illuminated
Aug 23
Waxing Crescent
Aug 24
First Quarter
Aug 31
Full
Sep 8
Last Quarter
Sep 15
New

Hourly Weather History & Observations

Time (CDT) Temp. Heat Index Dew Point Humidity Pressure Visibility Wind Dir Wind Speed Gust Speed Precip Events Conditions
12:15 AM 68.0 °F - 64.4 °F 88% 30.07 in 10.0 mi Calm Calm - N/A   Clear
12:35 AM 64.4 °F - 62.6 °F 94% 30.06 in 10.0 mi Calm Calm - N/A   Clear
12:55 AM 68.0 °F - 62.6 °F 83% 30.06 in 10.0 mi Calm Calm - N/A   Clear
1:15 AM 68.0 °F - 62.6 °F 83% 30.07 in 10.0 mi Calm Calm - N/A   Clear
1:35 AM 68.0 °F - 62.6 °F 83% 30.06 in 10.0 mi Calm Calm - N/A   Clear
1:55 AM 66.2 °F - 62.6 °F 88% 30.06 in 10.0 mi Calm Calm - N/A   Clear
2:15 AM 66.2 °F - 62.6 °F 88% 30.07 in 10.0 mi Calm Calm - N/A   Clear
2:35 AM 64.4 °F - 62.6 °F 94% 30.06 in 10.0 mi Calm Calm - N/A   Clear
2:55 AM 68.0 °F - 60.8 °F 78% 30.06 in 10.0 mi Calm Calm - N/A   Clear
3:15 AM 66.2 °F - 60.8 °F 83% 30.05 in 10.0 mi Calm Calm - N/A   Clear
3:35 AM 64.4 °F - 60.8 °F 88% 30.06 in 10.0 mi Calm Calm - N/A   Clear
3:55 AM 62.6 °F - 60.8 °F 94% 30.06 in 10.0 mi Calm Calm - N/A   Clear
4:15 AM 64.4 °F - 60.8 °F 88% 30.06 in 10.0 mi Calm Calm - N/A   Clear
4:35 AM 62.6 °F - 60.8 °F 94% 30.06 in 10.0 mi Calm Calm - N/A   Clear
4:55 AM 62.6 °F - 60.8 °F 94% 30.07 in 10.0 mi Calm Calm - N/A   Clear
5:15 AM 62.6 °F - 60.8 °F 94% 30.07 in 10.0 mi Calm Calm - N/A   Clear
5:35 AM 60.8 °F - 60.8 °F 100% 30.08 in 10.0 mi Calm Calm - N/A   Clear
5:55 AM 60.8 °F - 59.0 °F 94% 30.08 in 7.0 mi Calm Calm - N/A   Clear
6:15 AM 59.0 °F - 59.0 °F 100% 30.08 in 10.0 mi ENE 3.5 mph - N/A   Clear
6:35 AM 59.0 °F - 59.0 °F 100% 30.08 in 10.0 mi Calm Calm - N/A   Clear
6:55 AM 60.8 °F - 59.0 °F 94% 30.08 in 10.0 mi Calm Calm - N/A   Clear
7:15 AM 62.6 °F - 59.0 °F 88% 30.08 in 10.0 mi Calm Calm - N/A   Clear
7:35 AM 62.6 °F - 60.8 °F 94% 30.09 in 7.0 mi Calm Calm - N/A   Clear
7:55 AM 64.4 °F - 60.8 °F 88% 30.10 in 10.0 mi Calm Calm - N/A   Clear
8:15 AM 66.2 °F - 62.6 °F 88% 30.10 in 10.0 mi SE 3.5 mph - N/A   Clear
8:35 AM 66.2 °F - 62.6 °F 88% 30.10 in 10.0 mi Calm Calm - N/A   Clear
8:55 AM 68.0 °F - 62.6 °F 83% 30.11 in 10.0 mi Calm Calm - N/A   Clear
9:15 AM 69.8 °F - 64.4 °F 83% 30.11 in 10.0 mi Calm Calm - N/A   Clear
9:35 AM 71.6 °F - 64.4 °F 78% 30.11 in 10.0 mi ESE 3.5 mph - N/A   Clear
9:55 AM 73.4 °F - 66.2 °F 78% 30.11 in 10.0 mi ESE 3.5 mph - N/A   Clear
10:15 AM 77.0 °F - 68.0 °F 74% 30.12 in 10.0 mi SE 3.5 mph - N/A   Clear
10:35 AM 78.8 °F - 69.8 °F 74% 30.12 in 10.0 mi SE 4.6 mph - N/A   Clear
10:55 AM 80.6 °F 83.2 °F 68.0 °F 65% 30.12 in 10.0 mi SSE 3.5 mph - N/A   Clear
11:15 AM 80.6 °F 83.2 °F 68.0 °F 65% 30.11 in 10.0 mi SSE 5.8 mph - N/A   Clear
11:35 AM 82.4 °F 85.4 °F 68.0 °F 62% 30.11 in - SE 8.1 mph - N/A   Clear
11:55 AM 82.4 °F 84.6 °F 66.2 °F 58% 30.10 in 10.0 mi East 6.9 mph - N/A   Clear
12:35 PM 84.2 °F 86.6 °F 66.2 °F 55% 30.09 in 10.0 mi SE 6.9 mph - N/A   Clear
12:55 PM 82.4 °F 84.6 °F 66.2 °F 58% 30.08 in 10.0 mi ENE 6.9 mph - N/A   Clear
1:15 PM 86.0 °F 88.2 °F 66.2 °F 51% 30.07 in 10.0 mi East 10.4 mph - N/A   Clear
1:35 PM 86.0 °F 88.2 °F 66.2 °F 51% 30.07 in 10.0 mi ESE 5.8 mph - N/A   Clear
1:55 PM 86.0 °F 87.3 °F 64.4 °F 48% 30.07 in 10.0 mi ESE 9.2 mph - N/A   Clear
2:15 PM 86.0 °F 87.3 °F 64.4 °F 48% 30.06 in 10.0 mi East 5.8 mph - N/A   Clear
2:35 PM 87.8 °F 89.4 °F 64.4 °F 46% 30.05 in 10.0 mi SE 4.6 mph - N/A   Clear
2:55 PM 87.8 °F 89.4 °F 64.4 °F 46% 30.04 in 10.0 mi SSE 8.1 mph - N/A   Clear
3:15 PM 87.8 °F 87.6 °F 60.8 °F 40% 30.03 in 10.0 mi East 8.1 mph - N/A   Clear
3:35 PM 87.8 °F 87.6 °F 60.8 °F 40% 30.03 in 10.0 mi SSE 4.6 mph - N/A   Clear
3:55 PM 87.8 °F 87.6 °F 60.8 °F 40% 30.02 in 10.0 mi SE 6.9 mph - N/A   Clear
4:15 PM 89.6 °F 89.5 °F 60.8 °F 38% 30.02 in 10.0 mi SE 6.9 mph - N/A   Clear
4:35 PM 89.6 °F 88.9 °F 59.0 °F 36% 30.01 in 10.0 mi SE 6.9 mph - N/A   Clear
4:55 PM 87.8 °F 88.5 °F 62.6 °F 43% 30.00 in 10.0 mi SE 4.6 mph - N/A   Clear
5:15 PM 87.8 °F 87.6 °F 60.8 °F 40% 30.00 in 10.0 mi SE 3.5 mph - N/A   Clear
5:35 PM 87.8 °F 88.5 °F 62.6 °F 43% 29.99 in 10.0 mi SE 3.5 mph - N/A   Clear
5:55 PM 89.6 °F 90.1 °F 62.6 °F 40% 29.99 in 10.0 mi Calm Calm - N/A   Clear
6:15 PM 87.8 °F 88.5 °F 62.6 °F 43% 29.98 in 10.0 mi ESE 4.6 mph - N/A   Clear
6:35 PM 86.0 °F 87.3 °F 64.4 °F 48% 29.98 in 10.0 mi SE 4.6 mph - N/A   Clear
6:55 PM 82.4 °F 83.9 °F 64.4 °F 54% 29.98 in 10.0 mi Calm Calm - N/A   Clear
7:15 PM 82.4 °F 83.9 °F 64.4 °F 54% 29.98 in 10.0 mi SE 3.5 mph - N/A   Clear
7:35 PM 82.4 °F 83.9 °F 64.4 °F 54% 29.98 in 10.0 mi Calm Calm - N/A   Clear
7:55 PM 80.6 °F 83.2 °F 68.0 °F 65% 29.98 in 10.0 mi Calm Calm - N/A   Clear
8:15 PM 78.8 °F - 69.8 °F 74% 29.98 in 10.0 mi East 3.5 mph - N/A   Clear
8:35 PM 78.8 °F - 69.8 °F 74% 29.98 in 10.0 mi ENE 3.5 mph - N/A   Clear
8:55 PM 77.0 °F - 69.8 °F 78% 29.98 in 10.0 mi East 3.5 mph - N/A   Clear
9:15 PM 77.0 °F - 68.0 °F 74% 29.99 in 10.0 mi Calm Calm - N/A   Clear
9:35 PM 77.0 °F - 66.2 °F 69% 29.99 in 10.0 mi Calm Calm - N/A   Clear
9:55 PM 75.2 °F - 66.2 °F 73% 29.99 in 10.0 mi Calm Calm - N/A   Clear
10:15 PM 73.4 °F - 66.2 °F 78% 29.99 in 10.0 mi ESE 3.5 mph - N/A   Clear
10:35 PM 71.6 °F - 66.2 °F 83% 29.99 in 10.0 mi Calm Calm - N/A   Clear
10:55 PM 71.6 °F - 64.4 °F 78% 29.99 in 10.0 mi Calm Calm - N/A   Clear
11:15 PM 71.6 °F - 64.4 °F 78% 30.00 in 10.0 mi Calm Calm - N/A   Clear
11:35 PM 73.4 °F - 64.4 °F 73% 30.00 in 10.0 mi Calm Calm - N/A   Clear
11:55 PM 73.4 °F - 64.4 °F 73% 30.01 in 10.0 mi Calm Calm - N/A   Clear